Regional Weather Roundup
Issued by NWS

Home | Current Version | Previous Version | Text Only | Print | Product List | Glossary Off
Versions: 1 2 3 4 5 6 7 8 9 10 11 12 13 14 15 16 17 18 19 20 21 22 23 24 25 26 27 28 29 30 31 32 33 34 35 36 37 38 39 40 41 42 43 44 45 46 47 48 49 50

000
ASUS43 KOAX 201202
RWRNE

WEATHER ROUNDUP FOR NEBRASKA
NATIONAL WEATHER SERVICE OMAHA NE
700 AM CDT FRI OCT 20 2017

NOTES: SATELLITE DATA IS BEING USED TO AUGMENT CLOUD COVER ABOVE
       12000 FEET.
       "FAIR" INDICATES FEW OR NO CLOUDS BELOW 12,000 FEET WITH NO
       SIGNIFICANT WEATHER AND/OR OBSTRUCTIONS TO VISIBILITY.


NEZ001>004-019>022-054>056-201300-
NEBRASKA PANHANDLE

CITY           SKY/WX    TMP DP  RH WIND       PRES   REMARKS
SCOTTSBLUFF    PTCLDY    41  32  70 SW3       29.70F
6HR MIN TEMP:  40; 6HR MAX TEMP:  61;

ALLIANCE       MOCLDY    43  41  93 S8        29.71F
6HR MIN TEMP:  40; 6HR MAX TEMP:  48;

CHADRON        CLEAR     46  33  60 SW7       29.64F
6HR MIN TEMP:  44; 6HR MAX TEMP:  65;

GORDON         FAIR      49  44  81 N3        29.68F
6HR MIN TEMP:  45; 6HR MAX TEMP:  63;

KIMBALL        CLEAR     40  32  73 W7        29.75S
SIDNEY         PTCLDY    35  33  92 SW7       29.73F WCI  29
6HR MIN TEMP:  33; 6HR MAX TEMP:  55;

$$

NEZ057>060-069>072-079>082-201300-
SOUTHWEST NEBRASKA

CITY           SKY/WX    TMP DP  RH WIND       PRES   REMARKS
NORTH PLATTE   MOCLDY    56  47  71 S9        29.77S
6HR MIN TEMP:  56; 6HR MAX TEMP:  62;

IMPERIAL       MOCLDY    54  46  74 S10       29.76F
6HR MIN TEMP:  53; 6HR MAX TEMP:  59;

LEXINGTON      PTCLDY    56  47  70 S13       29.82S
MCCOOK         MOCLDY    58  48  69 MISG      29.79F
6HR MIN TEMP:  56; 6HR MAX TEMP:  63;

OGALLALA       CLOUDY    51  46  82 CALM      29.76S
$$

NEZ005>010-023>029-035>040-094-201300-
NORTH CENTRAL NEBRASKA

CITY           SKY/WX    TMP DP  RH WIND       PRES   REMARKS
VALENTINE      CLEAR     56  44  64 S14       29.70F
6HR MIN TEMP:  56; 6HR MAX TEMP:  64;

AINSWORTH      PTCLDY    53  46  77 S13       29.72F
BROKEN BOW     MOCLDY    55  46  71 S9G20     29.79F
6HR MIN TEMP:  51; 6HR MAX TEMP:  59;

O`NEILL        MOCLDY    56  49  75 S15       29.78F
ORD            PTCLDY    55  48  77 S12       29.80F
6HR MIN TEMP:  54; 6HR MAX TEMP:  60;

THEDFORD       MOCLDY    55  46  74 S9        29.75F
$$

NEZ041-046>049-061>064-073>077-083>087-201300-
SOUTH CENTRAL NEBRASKA

CITY           SKY/WX    TMP DP  RH WIND       PRES   REMARKS
GRAND ISLAND   FAIR      55  50  83 S14       29.86F
6HR MIN TEMP:  55; 6HR MAX TEMP:  60;

AURORA         FAIR      56  50  80 S15G21    29.88S
HASTINGS       FAIR      57  49  74 S13       29.88F
6HR MIN TEMP:  57; 6HR MAX TEMP:  60;

HEBRON         FAIR      58  52  79 S10       29.93S
HOLDREGE       FAIR      55  48  77 S9        29.84F
KEARNEY        FAIR      57  48  72 S17       29.84F
YORK             N/A     55  52  88 S15       29.90F
$$

NEZ011>018-030>034-042>045-201300-
NORTHEAST NEBRASKA

CITY           SKY/WX    TMP DP  RH WIND       PRES   REMARKS
NORFOLK        FAIR      57  50  77 S20       29.85F
6HR MIN TEMP:  56; 6HR MAX TEMP:  62;

ALBION         FAIR      57  50  77 S10       29.85F
BLAIR          FAIR      57  52  85 S10       29.95S
COLUMBUS       FAIR      58  51  78 S17G25    29.88F
FREMONT        FAIR      57  51  79 SE10      29.93S
TEKAMAH        FAIR      51  48  89 SE6       29.93S
6HR MIN TEMP:  51; 6HR MAX TEMP:  60;

WAYNE          FAIR      56  52  88 S9G16     29.86F
$$

NEZ050>053-065>068-078-088>093-201300-
SOUTHEAST NEBRASKA

CITY           SKY/WX    TMP DP  RH WIND       PRES   REMARKS
LINCOLN        FAIR      57  52  83 S14       29.94S
6HR MIN TEMP:  55; 6HR MAX TEMP:  62;

OMAHA EPPLEY   FAIR      58  51  78 S15       29.97S
6HR MIN TEMP:  56; 6HR MAX TEMP:  60;

BEATRICE       FAIR      58  53  83 S14G20    29.96F
FALLS CITY     FAIR      58  53  84 S10       30.01S
6HR MIN TEMP:  55; 6HR MAX TEMP:  60;

NEBRASKA CITY  FAIR      54  54 100 S9        29.99S
PLATTSMOUTH    FAIR      55  53  92 SE12      29.97F
$$

NEZ044-045-051>053-067-201300-
OMAHA AREA

CITY           SKY/WX    TMP DP  RH WIND       PRES   REMARKS
OMAHA EPPLEY   FAIR      58  51  78 S15       29.97S
6HR MIN TEMP:  56; 6HR MAX TEMP:  60;

BLAIR          FAIR      57  52  85 S10       29.95S
FREMONT        FAIR      57  51  79 SE10      29.93S
MILLARD        FAIR      57  53  86 SE7       29.96S
OFFUTT AFB     FAIR      55  51  86 SE12      29.97S
PLATTSMOUTH    FAIR      55  53  92 SE12      29.97F
WAHOO          CLOUDY    54  50  87 SE8       29.93F
$$




USA.gov is the U.S. government's official web portal to all federal, state and local government web resources and services.